Weather Roundup
Issued by NWS Corpus Christi, TX

Home | Current Version | Previous Version | Text Only | Print | Product List | Glossary On
Versions: 1 2 3 4 5 6 7 8 9 10 11 12 13 14 15 16 17 18 19 20 21 22 23 24 25 26 27 28 29 30 31 32 33 34 35 36 37 38 39 40 41 42 43 44 45 46 47 48 49 50
000
ASUS44 KCRP 300010
HRRCRP

SOUTH TEXAS REGIONAL WEATHER ROUNDUP
NATIONAL WEATHER SERVICE CORPUS CHRISTI TX
700 PM CDT SUN MAR 29 2015


TXZ229>244-300100-
...CORPUS CHRISTI AREA OBSERVATIONS...

CITY           SKY/WX    TMP DP  RH WIND       PRES   REMARKS
CORPUS CHRISTI CLEAR     74  63  68 SE25G33   30.06S
NAS CORPUS CHR NOT AVBL
ROCKPORT       CLEAR     73  64  73 S10G22    30.08R
KINGSVILLE NAS CLEAR     77  67  71 SE21G28   30.04S
ALICE          CLEAR     81  63  54 SE17      30.02S
FALFURRIAS     CLEAR     80  60  49 S13       30.03S
$$

...VICTORIA AREA OBSERVATIONS...

CITY           SKY/WX    TMP DP  RH WIND       PRES   REMARKS
VICTORIA       CLEAR     75  61  61 S20G26    30.08R
BEEVILLE       FAIR      75  64  67 S20G30    30.04R
PLEASANTON     SUNNY     82  56  41 SE12G17   30.02R
SAN ANTONIO    SUNNY     80  59  48 SE16G22   30.02F
$$

...LAREDO AREA OBSERVATIONS...

CITY           SKY/WX    TMP DP  RH WIND       PRES   REMARKS
LAREDO         SUNNY     86  58  38 SE18      30.00S
COTULLA        SUNNY     85  56  37 S14G22    29.99R
DEL RIO        SUNNY     87  54  32 S16       29.94S
MCALLEN        SUNNY     79  63  57 SE22G30   30.05S
HEBBRONVILLE   NOT AVBL
$$

...OTHER TEXAS OBSERVATIONS...

CITY           SKY/WX    TMP DP  RH WIND       PRES   REMARKS
BROWNSVILLE    CLEAR     75  64  68 S20G28    30.09R
HOUSTON        PTCLDY    76  60  57 S10G22    30.09S
COL. STATION   CLEAR     77  56  48 S17G29    30.04S
AUSTIN         CLEAR     77  56  48 S18G29    30.01S
WACO           CLEAR     77  55  46 S17       29.97S
FORT WORTH     PTCLDY    80  55  42 S17       29.95S
WICHITA FALLS  CLEAR     75  46  35 N21       30.02R
LUBBOCK        PTSUNNY   76  24  14 NE22G28   30.13R
EL PASO        CLOUDY    86   9   5 W13       30.08S
$$

...MARINE OBSERVATIONS...

STATION/POSITION TIME  SKY/WX   TEMP    WIND        PRES    VSBY  WAVE   SWELL
                                AIR SEA DIR/SP/G                  HT/PER HT/PER
                 (UTC)          (F)     (DEG/KT/KT) (MB)    (MI)  (FT/S) (FT/S)
PORT ARANSAS     0000            69 69  150/ 12/ 13 1019.5R
BUOY 90 E PORT A 0000            72 70  170/ 12/ 16 1020.1F         4/ 7   3/ 7
BUOY 45 SE BAFFI 0000            72 71  160/ 17/ 19 1017.9F         3/ 6
BUOY 200 E PT IS 0000            74 73  150/ 12/ 16 1021.4R         3/ 5
BUOY 15 E GALVES 0000            69 68  160/ 10/ 12 1020.4R         3/ 7   3/ 7
$$


USA.gov is the U.S. government's official web portal to all federal, state and local government web resources and services.